Starlink 30810

operational
NORAD ID: 58178 Int'l Des: 2023-167 Owner: SPXS Country: US Constellation: starlink
LEOCIRCULAR

Über Starlink 30810

Beschreibung wird geladen...

Live-Position

3D-Globus wird geladen...

Nächste Überflüge

Höhenverlauf

Altitude vs Time

uPlot chart will show altitude changes over time

Zweizeiliger Elementsatz

1 58178U 23167D 25350.94992342 .00000928 00000-0 83754-4 0 9995
2 58178 43.0035 235.9832 0001120 268.5876 91.4838 15.02537938118505
Epoch: 16. Dez. 2025 • Age: 9 hours

Aktueller Status

Höhe 571.6 km
Geschwindigkeit 7.58 km/s
Subsatellitenpunkt -43.06°S, 66.45°W
Startdatum 30. Okt. 2023
Alter 2.1 years
Typ internet

Technische Details

Klassifizierung Payload
Masse 730.00 kg
Trockenmasse 700.00 kg
Gesamtmasse 730.00 kg
Länge 0.30 m
Durchmesser 4.10 m
Spannweite 29.00 m
Form Box + pan
Hersteller SPXS
Bus-Typ Starlink V2M
Phasenstatus In Orbit
Besitzer/Staat SPXS/US

Große Konstellationen

Loading constellations...